This is the latest recevied weather packets stored in our database for station/object SP5IZJ-2. If no packets are shown the sender has not sent any weather packets the latest 10 day(s).
| Time | Temp. | Humidity | Pressure | Rain* | Wind** | Luminosity | Snow |
|---|---|---|---|---|---|---|---|
| 1777597654 | 8.33° C | 55% | 1019 hPa | 0 mm | - | - | - |
| 1777596815 | 8.33° C | 55% | 1019.1 hPa | 0 mm | - | - | - |
| 1777596395 | 8.33° C | 54% | 1019.2 hPa | 0 mm | - | - | - |
| 1777595975 | 8.33° C | 54% | 1019.2 hPa | 0 mm | - | - | - |
| 1777595555 | 8.33° C | 55% | 1019.3 hPa | 0 mm | - | - | - |
| 1777595135 | 8.33° C | 55% | 1019.1 hPa | 0 mm | - | - | - |
| 1777594718 | 8.33° C | 55% | 1019.4 hPa | 0 mm | - | - | - |
| 1777593921 | 8.33° C | 55% | 1019.5 hPa | 0 mm | - | - | - |
| 1777593456 | 8.33° C | 56% | 1019.5 hPa | 0 mm | - | - | - |
| 1777593036 | 8.33° C | 56% | 1019.5 hPa | 0 mm | - | - | - |
| 1777592617 | 8.33° C | 57% | 1019.4 hPa | 0 mm | - | - | - |
| 1777592197 | 8.33° C | 57% | 1019.5 hPa | 0 mm | - | - | - |
| 1777591357 | 8.33° C | 57% | 1019.7 hPa | 0 mm | - | - | - |
| 1777590937 | 8.33° C | 57% | 1019.7 hPa | 0 mm | - | - | - |
| 1777589260 | 7.78° C | 61% | 1019.8 hPa | 0 mm | - | - | - |
| 1777588838 | 7.78° C | 62% | 1019.8 hPa | 0 mm | - | - | - |
| 1777588418 | 7.78° C | 62% | 1019.8 hPa | 0 mm | - | - | - |
| 1777587583 | 7.22° C | 60% | 1019.8 hPa | 0 mm | - | - | - |
| 1777587159 | 7.22° C | 58% | 1019.9 hPa | 0 mm | - | - | - |
| 1777586739 | 7.22° C | 56% | 1019.8 hPa | 0 mm | - | - | - |
| 1777585060 | 7.78° C | 53% | 1020 hPa | 0 mm | - | - | - |
| 1777584640 | 8.33° C | 53% | 1019.8 hPa | 0 mm | - | - | - |
| 1777582961 | 8.33° C | 51% | 1019.8 hPa | 0 mm | - | - | - |
| 1777582121 | 8.33° C | 51% | 1020.1 hPa | 0 mm | - | - | - |
| 1777581281 | 8.33° C | 52% | 1020.2 hPa | 0 mm | - | - | - |
* Rain latest hour (hover to see other rain measurements)
** Current wind speed in m/s (hover to see current wind gust speed)